Flag for Germany Weather past 2 weeks in Schwäbisch Gmünd, Baden-Württemberg, Germany

Now
58 °F

Overcast.


Feels Like: 59 °F
Forecast: 47 / 68 °F
Wind: 3 mph from Southwest

Location: Stoetten

Current Time: Aug 20, 2014 at 7:04:17 PM

Latest Report: Aug 20, 2014 at 6:00 PM


Visibility: 47 mi

Pressure: 29.98 "Hg

Humidity: 61%

Dew point: 45 °F

Location of Schwäbisch GmündLocation

Historic Weather in Schwäbisch Gmünd — Graph

°F

Schwäbisch Gmünd temperature yesterday

Maximum temperature yesterday: 63 °F (at 5:00 PM)
Minimum temperature yesterday: 50 °F (at 1:00 AM)
Average temperature yesterday: 55 °F

Past Weeks' High & Low Weather Summary

 TemperatureHumidityPressure
High78 °F (Aug 10, 4:00 PM)100% (Aug 16, 9:00 AM)30.19 "Hg (Aug 16, 9:00 AM)
Low47 °F (Aug 20, 5:00 AM)48% (Aug 6, 5:00 PM)29.66 "Hg (Aug 13, 3:00 PM)
Average58 °F79%29.95 "Hg
* Reported Aug 5 6:00 PM — Aug 20 6:00 PM, Schwäbisch Gmünd, Weather by CustomWeather, © 2014

Note: Actual official high and low records may vary slightly from our data, if they occured in-between our weather recording intervals... More about our weather records

Advertising

Schwäbisch Gmünd weather history for previous 24 hours

 ConditionsComfort  
Time TempWeatherWind HumidityBarometerVisibility
6:00 PM
Aug 20
58 °FOvercast.3 mph61%29.98 "Hg47 mi
5:00 PM59 °FOvercast.2 mph60%29.98 "Hg47 mi
4:00 PM59 °FOvercast.3 mph56%29.99 "Hg47 mi
3:00 PM59 °FOvercast.3 mph53%29.99 "Hg47 mi
2:00 PM57 °FOvercast.3 mph57%30.01 "Hg47 mi
1:00 PM57 °FPartly sunny.3 mph57%30.02 "Hg47 mi
12:00 PM54 °FPartly sunny.2 mph68%30.04 "Hg47 mi
11:00 AM52 °FPartly sunny.3 mph76%30.06 "Hg47 mi
10:00 AM50 °FPartly sunny.2 mph72%30.05 "Hg47 mi
9:00 AM48 °FPartly sunny.3 mph80%30.06 "Hg43 mi
8:00 AM48 °FPartly sunny.3 mph89%30.06 "Hg40 mi
7:00 AM47 °FPartly sunny.5 mph91%30.06 "Hg37 mi
6:00 AM48 °FOvercast.3 mph90%30.06 "Hg31 mi
5:00 AM47 °FOvercast.3 mph89%30.05 "Hg12 mi
4:00 AM47 °FPassing clouds.3 mph90%30.04 "Hg15 mi
3:00 AM47 °FPassing clouds.3 mph89%30.04 "Hg14 mi
2:00 AM49 °FPassing clouds.5 mph85%30.03 "Hg16 mi
1:00 AM49 °FPassing clouds.3 mph84%30.03 "Hg17 mi
12:00 AM50 °FOvercast.3 mph82%30.02 "Hg14 mi
11:00 PM
Aug 19
52 °FClear.5 mph79%30.00 "Hg40 mi
10:00 PM53 °FOvercast.3 mph76%29.98 "Hg40 mi
9:00 PM54 °FPassing clouds.5 mph73%29.96 "Hg47 mi
8:00 PM57 °FPassing clouds.7 mph68%29.93 "Hg47 mi
7:00 PM58 °FPassing clouds.5 mph68%29.90 "Hg47 mi
Weather by CustomWeather, © 2014

See weather overviewHow to use our weather pages